Погода Ростов Великий

Хотите узнать прогноз погоды Ростов Великий? Тогда Вам сюда: Погода Ростов Великий

Поиск расширенной информации на нашем сайте:

Полезная информация:

Новости сайта



02.01.2020
Опубликован Долгосрочный прогноз погоды по городам России и ближнего зарубежья на январь 2020 года.
Карты: Прогноз на январь и февраль 2020 года, Сравнение прогнозируемой аномалии приземной температуры воздуха на январь 2020 года по разным моделям.




Погода Ростов Великий - сегодня

Время (UTC), дата Ветер
(°,м/с) 
Видим.   Явления Облачность Т
(°С)
Тd
(°С)
f(%) Тe
(°С)
Pmin
(гПа)
dP
(гПа)
Po
(мм)
O2
(г/м3)
Тmin Tmax R s Состояние
почвы
00 16.01.22 350 (С) 5-10{12}  10 км  {ливн. осадки}  8/8 600 м 
[Sc]
-3 -6.7 76 -7  1000.6  2.3  741  303           
03 16.01.22 330 (СЗ) 3{11}  10 км    8/8 600 м 
[Sc]
-4.1 -5.8 88 -6  1002.8  2.2  743  304  -4.3    0.2  52  равномерный
мокрый или
старый снег
100% 
06 16.01.22 330 (СЗ) 10 км  {ливн. осадки}  3/3 600 м 
[Sc]
-5.4 -8.1 81 -8  1005.3  2.4  744  307  -5.4         
09 16.01.22 320 (СЗ) 10 км    8/5 600 м верхняя 
[Sc|Ci fib]
-4.6 -9.2 70 -8  1006.2  0.9  745  306           
12 16.01.22 310 (СЗ) 4{10}  10 км    10/10 600 м 
[Sc]
-4.5 -8.6 73 -8  1005.9  -0.3  745  306           
15 16.01.22 240 (ЮЗ) 10 км    10/10 600 м 
[Sc]
-5.8 -8.4 82 -5  1004.7  -1.3  744  307    -3.9       
18 16.01.22 260 (З) 10 км    10/10 600 м 
[Sc]
-4.3 -7.9 76 -7  1001.7  -2.9  742  304           
21 16.01.22 250 (З) 10 км    10/10 600 м 
[Sc]
-5.9 -8.6 81 -8  998.7  -2.9  740  305           
00 17.01.22 240 (ЮЗ) 10 км    10/10 600 м 
[Sc]
-4.3 -6.5 85 -7  995.1  -3.5  737  302           
03 17.01.22 210 (ЮЗ) 10 км    10/10 600 м 
[Sc]
-4.3 -6 88 -6  991.3  -3.8  734  301  -6.1      45  равномерный
мокрый или
старый снег
100% 
06 17.01.22 210 (ЮЗ) 4000 м  снег{ливн. осадки}  10/0 средняя 
[As op]
-4.3 -5.2 93 -7  988  -3.2  732  300           
09 17.01.22 210 (ЮЗ) 4000 м  снег  10/0 средняя 
[As op]
-4.1 -5.2 92 -6  986.3  -1.5  730  299           
12 17.01.22 210 (ЮЗ) 4000 м  слаб. снег  10/0 средняя 
[As op]
-4 -5.2 91 -6  984.8  -1.5  729  299           
15 17.01.22 200 (Ю) 4000 м  слаб. снег  10/0 средняя 
[As op]
-4.4 -5.2 94 -6  984.8  0.1  729  299    -4     
18 17.01.22 190 (Ю) 2000 м  снег  10/0 средняя 
[As op]
-4 -4.5 96 -5  984.8  0.1  729  299           
21 17.01.22 180 (Ю) 2000 м  снег  10/0 средняя 
[As op]
-3.8 -4 99 -3  986  1.2  730  299           
00 18.01.22 тихо ()   10 км  {снег}  10/8 600 м средняя 
[Sc|As op]
-5 -5.2 99 -5  989  2.9  732  301           
03 18.01.22 340 (С) 10 км    9/9 600 м 
[Sc]
-5 -5.3 98 -6  992.9  3.8  735  302  -5.5    50  равномерный
сухой снег
100% 
06 18.01.22 340 (С) 4000 м  снег  10/0 средняя 
[Ac As]
-4.3 -5.9 89 -7  997.7  4.8  739  303           
09 18.01.22 360 (С) 4{11}  10 км  {снег}  10/0 средняя 
[Ac und]
-5.6 -8.8 78 -9  1002.1  4.2  742  306           
12 18.01.22 360 (С) 4{10}  10 км  {снег}  10/0 средняя 
[Ac und]
-5.5 -9.5 73 -9  1005.7  3.6  745  307           
15 18.01.22 340 (С) 4{10}  10 км    10/0 средняя 
[Ac und]
-6.7 -10.2 76 -10  1009.7  3.9  748  310    -3.5  0.2     
18 18.01.22 340 (С) 4{14}  10 км    10/10 1000 м 
[Sc]
-7.4 -10.7 77 -11  1012.4  2.6  749  311           
21 18.01.22 320 (СЗ) 10 км    10/10 1000 м 
[Sc]
-9 -11.7 81 -13  1014.3  1.8  751  314           
00 19.01.22 310 (СЗ) 10 км    10/10 1000 м 
[Sc]
-12.7 -14.2 88 -15  1015.5  1.1  752  319           
Время (UTC), дата Ветер
(°,м/с) 
Видим.   Явления Облачность Т
(°С)
Тd
(°С)
f(%) Тe
(°С)
Pmin
(гПа)
dP
(гПа)
Po
(мм)
O2
(г/м3)
Тmin Tmax R s Состояние
почвы

Для получения пояснительной информации подведите курсор к названию столбца.

ПОГОДА Ростов Великий - архив

Всё, что Вы хотите узнать о погоде Ростов Великий - удобно и подробно!

Выберите нужную дату (начиная с 1 января 2019* года) и нажмите кнопку "Найти".
Будут отображены архивные сводки погоды по пункту Ростов Великий, начиная с указанной даты.


Отображать данные в формате CSV (для использования в таблицах Excel)


Внимание! Наш архив погоды предназначен исключительно для личного некоммерческого использования в познавательных целях. Если Вам необходимы официальные справки о состоянии погоды (для производственных, юридических, коммерческих и т.п. целей), обращайтесь в органы Росгидромета.

*Примечание: данная дата относится к архиву по метеостанциям СССР (Россия, СНГ, Балтия).
Архив по метеостанциям Зарубежной Европы и Азии (кроме Китая) хранится 10 дней, по другим регионам земного шара (Китай, Африка, Америка, Австралия, Океания) - 1 день.

Ростов Великий - район местоположения метеостанции


Название, широта, долгота, высота метеостанции:
Ростов Великий 57.2°ш. 39.4°д. 101 м над ур. моря [Российская Федерация]

Дополнительная информация

В oтличие oт бoльшинства пoгoдных сайтoв мы публикуем пoдрoбную метеoинфoрмацию в детальнoм прoфессиoнальнoм фoрмате.

Характеристики температуры и влажнoсти вoздуха измеряются на высoте 2 м в тени вдали oт зданий и деревьев.
Скoрoсть ветра измеряется на высoте 10 м (на урoвне рoста челoвека скoрoсть ветра ниже в 1.5-2 раза). Если метеoстанция нахoдится в гoрoде или в лесу, тo скoрoсть ветра занижена на 2-4 м/с пo сравнению с oткрытым местoм. Скoрoсть ветра над акватoриями крупных рек и oзёр, а также на вершинах хoлмoв на 2-5 м/с выше, чем в oбычных услoвиях.
Атмoсфернoе давление в разных тoчках местнoсти мoжет значительнo oтличаться oт давления на метеoстанции, в зависимoсти oт услoвий рельефа (при пoдъёме на 10 м давление пoнижается примернo на 1 мм рт.ст.).